CommID,deviceName,DataDateTime,GPSLatitude,GPSLongitude,Submerged,gpsQuality,BatteryVoltage,SST,IridiumLatitude,IridiumLongitude,IridiumRadiusKm,orgName,bPressTend,windDir,windSpeed,bPress,SurfaceSalinity,temperature7m,salinity7m,temperature15m,salinity15m
300234011885330,SFOS-MS-0016,10/14/2012 5:00:08 PM,70.313958,-161.712424,True,3,9.5,-1.75,70.174440,-161.439840,2,School of Fisheries and Ocean Sciences,,,,,,,,,
300234011885330,SFOS-MS-0016,10/14/2012 4:30:07 PM,70.313950,-161.712488,True,3,9.5,-1.70,70.181690,-161.439840,2,School of Fisheries and Ocean Sciences,,,,,,,,,
300234011885330,SFOS-MS-0016,10/14/2012 4:00:07 PM,70.313961,-161.712496,True,3,9.5,-1.65,70.194550,-161.359210,3,School of Fisheries and Ocean Sciences,,,,,,,,,
300234011885330,SFOS-MS-0016,10/14/2012 3:30:07 PM,70.313978,-161.712466,True,3,9.5,-1.75,70.188020,-161.500420,3,School of Fisheries and Ocean Sciences,,,,,,,,,
300234011885330,SFOS-MS-0016,10/14/2012 3:00:38 PM,70.313978,-161.712485,True,3,9.5,-1.75,70.175330,-161.379330,3,School of Fisheries and Ocean Sciences,,,,,,,,,
300234011885330,SFOS-MS-0016,10/14/2012 2:30:08 PM,70.313956,-161.712507,True,3,9.5,-1.75,70.175330,-161.379330,2,School of Fisheries and Ocean Sciences,,,,,,,,,
300234011885330,SFOS-MS-0016,10/14/2012 2:00:07 PM,70.313967,-161.712504,True,3,9.5,-1.75,70.188020,-161.500420,2,School of Fisheries and Ocean Sciences,,,,,,,,,
300234011885330,SFOS-MS-0016,10/14/2012 1:30:07 PM,70.313967,-161.712482,True,3,9.5,-1.75,70.174440,-161.439840,2,School of Fisheries and Ocean Sciences,,,,,,,,,
300234011885330,SFOS-MS-0016,10/14/2012 1:00:37 PM,70.313958,-161.712499,True,3,9.5,-1.75,70.175330,-161.379330,2,School of Fisheries and Ocean Sciences,,,,,,,,,
300234011885330,SFOS-MS-0016,10/14/2012 12:30:15 PM,70.313969,-161.712463,True,3,9.5,-1.80,70.194550,-161.359210,4,School of Fisheries and Ocean Sciences,,,,,,,,,
300234011885330,SFOS-MS-0016,10/14/2012 12:00:07 PM,70.313969,-161.712452,True,3,9.5,-1.80,70.175330,-161.379330,3,School of Fisheries and Ocean Sciences,,,,,,,,,
300234011885330,SFOS-MS-0016,10/14/2012 11:30:07 AM,70.313975,-161.712418,True,3,9.5,-1.75,70.188020,-161.500420,3,School of Fisheries and Ocean Sciences,,,,,,,,,
300234011885330,SFOS-MS-0016,10/14/2012 11:00:07 AM,70.313964,-161.712449,True,3,9.5,-1.80,70.255080,-163.112860,85,School of Fisheries and Ocean Sciences,,,,,,,,,
300234011885330,SFOS-MS-0016,10/14/2012 10:30:07 AM,70.313972,-161.712454,True,3,9.5,-1.80,70.175330,-161.379330,2,School of Fisheries and Ocean Sciences,,,,,,,,,
300234011885330,SFOS-MS-0016,10/14/2012 10:00:37 AM,70.313972,-161.712454,True,3,9.5,-1.75,70.174440,-161.439840,8,School of Fisheries and Ocean Sciences,,,,,,,,,
300234011885330,SFOS-MS-0016,10/14/2012 9:30:09 AM,70.313989,-161.712557,True,3,9.5,-1.80,70.188020,-161.500420,20,School of Fisheries and Ocean Sciences,,,,,,,,,
300234011885330,SFOS-MS-0016,10/14/2012 9:00:07 AM,70.313969,-161.712527,True,3,9.5,-1.80,70.278420,-164.227030,125,School of Fisheries and Ocean Sciences,,,,,,,,,
300234011885330,SFOS-MS-0016,10/14/2012 8:30:07 AM,70.313972,-161.712496,True,3,9.5,-1.90,70.619000,-157.385000,189,School of Fisheries and Ocean Sciences,,,,,,,,,
300234011885330,SFOS-MS-0016,10/14/2012 8:00:07 AM,70.313992,-161.712441,True,3,9.5,-1.80,70.168070,-161.379330,3,School of Fisheries and Ocean Sciences,,,,,,,,,
300234011885330,SFOS-MS-0016,10/14/2012 7:30:07 AM,70.313972,-161.712471,True,3,9.5,-1.75,70.194550,-161.359210,2,School of Fisheries and Ocean Sciences,,,,,,,,,
300234011885330,SFOS-MS-0016,10/14/2012 7:00:07 AM,70.313975,-161.712504,True,3,9.5,-1.75,70.181690,-161.439840,2,School of Fisheries and Ocean Sciences,,,,,,,,,
300234011885330,SFOS-MS-0016,10/14/2012 6:30:07 AM,70.313958,-161.712482,True,3,9.5,-1.80,70.194550,-161.359210,2,School of Fisheries and Ocean Sciences,,,,,,,,,
300234011885330,SFOS-MS-0016,10/14/2012 6:00:37 AM,70.313983,-161.712438,True,3,10.0,-1.70,70.194550,-161.359210,5,School of Fisheries and Ocean Sciences,,,,,,,,,
300234011885330,SFOS-MS-0016,10/14/2012 5:30:08 AM,70.313975,-161.712446,True,3,10.0,-1.75,70.181690,-161.439840,3,School of Fisheries and Ocean Sciences,,,,,,,,,
300234011885330,SFOS-MS-0016,10/14/2012 5:00:09 AM,70.314031,-161.712307,True,3,10.0,-1.75,70.422740,-167.568700,218,School of Fisheries and Ocean Sciences,,,,,,,,,
300234011885330,SFOS-MS-0016,10/14/2012 4:30:08 AM,70.313947,-161.712532,True,3,10.0,-1.70,70.181690,-161.439840,3,School of Fisheries and Ocean Sciences,,,,,,,,,
300234011885330,SFOS-MS-0016,10/14/2012 4:00:07 AM,70.313950,-161.712499,True,3,10.0,-1.65,70.188020,-161.500420,2,School of Fisheries and Ocean Sciences,,,,,,,,,
300234011885330,SFOS-MS-0016,10/14/2012 3:30:07 AM,70.313992,-161.712496,True,3,10.0,-1.65,70.194550,-161.359210,4,School of Fisheries and Ocean Sciences,,,,,,,,,
300234011885330,SFOS-MS-0016,10/14/2012 3:00:07 AM,70.314000,-161.712482,True,3,10.0,-1.65,70.188020,-161.500420,2,School of Fisheries and Ocean Sciences,,,,,,,,,
300234011885330,SFOS-MS-0016,10/14/2012 2:30:10 AM,70.313986,-161.712454,True,3,10.0,-1.60,70.194550,-161.359210,4,School of Fisheries and Ocean Sciences,,,,,,,,,
300234011885330,SFOS-MS-0016,10/14/2012 2:00:38 AM,70.313975,-161.712463,True,3,10.0,-1.55,70.175330,-161.379330,3,School of Fisheries and Ocean Sciences,,,,,,,,,
300234011885330,SFOS-MS-0016,10/14/2012 1:30:08 AM,70.313961,-161.712360,True,3,10.0,-1.55,70.175330,-161.379330,2,School of Fisheries and Ocean Sciences,,,,,,,,,
300234011885330,SFOS-MS-0016,10/14/2012 1:00:07 AM,70.313972,-161.712304,True,3,10.0,-1.50,70.194550,-161.359210,3,School of Fisheries and Ocean Sciences,,,,,,,,,
300234011885330,SFOS-MS-0016,10/14/2012 12:30:07 AM,70.313969,-161.712449,True,3,10.0,-1.45,70.292460,-164.147700,132,School of Fisheries and Ocean Sciences,,,,,,,,,
300234011885330,SFOS-MS-0016,10/14/2012 12:00:07 AM,70.313992,-161.712452,True,3,10.0,-1.45,70.174440,-161.439840,6,School of Fisheries and Ocean Sciences,,,,,,,,,
300234011885330,SFOS-MS-0016,10/13/2012 11:30:07 PM,70.314008,-161.712410,True,3,10.0,-1.45,70.194550,-161.359210,3,School of Fisheries and Ocean Sciences,,,,,,,,,
300234011885330,SFOS-MS-0016,10/13/2012 11:00:37 PM,70.313986,-161.712471,True,3,10.0,-1.45,70.207270,-161.480500,2,School of Fisheries and Ocean Sciences,,,,,,,,,
300234011885330,SFOS-MS-0016,10/13/2012 10:30:07 PM,70.313961,-161.712496,True,3,10.0,-1.45,70.174440,-161.439840,8,School of Fisheries and Ocean Sciences,,,,,,,,,
300234011885330,SFOS-MS-0016,10/13/2012 10:00:07 PM,70.313958,-161.712521,True,3,10.0,-1.50,70.200920,-161.419820,14,School of Fisheries and Ocean Sciences,,,,,,,,,
300234011885330,SFOS-MS-0016,10/13/2012 9:30:07 PM,70.313972,-161.712513,True,3,10.0,-1.50,70.174440,-161.439840,5,School of Fisheries and Ocean Sciences,,,,,,,,,
300234011885330,SFOS-MS-0016,10/13/2012 9:00:07 PM,70.314006,-161.712457,True,3,10.0,-1.50,70.200920,-161.419820,4,School of Fisheries and Ocean Sciences,,,,,,,,,
300234011885330,SFOS-MS-0016,10/13/2012 8:30:08 PM,70.313989,-161.712499,True,3,10.0,-1.55,70.194550,-161.359210,1,School of Fisheries and Ocean Sciences,,,,,,,,,
300234011885330,SFOS-MS-0016,10/13/2012 8:00:37 PM,70.313983,-161.712488,True,3,10.0,-1.55,70.194550,-161.359210,4,School of Fisheries and Ocean Sciences,,,,,,,,,
300234011885330,SFOS-MS-0016,10/13/2012 7:30:07 PM,70.313989,-161.712482,True,3,10.0,-1.60,70.175330,-161.379330,1449,School of Fisheries and Ocean Sciences,,,,,,,,,
300234011885330,SFOS-MS-0016,10/13/2012 7:00:07 PM,70.313981,-161.712468,True,3,10.0,-1.60,70.174440,-161.439840,3,School of Fisheries and Ocean Sciences,,,,,,,,,
300234011885330,SFOS-MS-0016,10/13/2012 6:30:07 PM,70.313997,-161.712471,True,3,10.0,-1.60,70.181690,-161.439840,2,School of Fisheries and Ocean Sciences,,,,,,,,,
300234011885330,SFOS-MS-0016,10/13/2012 6:00:07 PM,70.313964,-161.712424,True,3,10.0,-1.55,70.168070,-161.379330,5,School of Fisheries and Ocean Sciences,,,,,,,,,
300234011885330,SFOS-MS-0016,10/13/2012 5:30:37 PM,70.313967,-161.712463,True,3,10.0,-1.60,70.200920,-161.419820,6,School of Fisheries and Ocean Sciences,,,,,,,,,
300234011885330,SFOS-MS-0016,10/13/2012 5:00:15 PM,70.313947,-161.712396,True,3,10.0,-1.55,70.434280,-155.576210,235,School of Fisheries and Ocean Sciences,,,,,,,,,
300234011885330,SFOS-MS-0016,10/13/2012 4:30:07 PM,70.313969,-161.712413,True,3,10.0,-1.50,70.175330,-161.379330,2,School of Fisheries and Ocean Sciences,,,,,,,,,
300234011885330,SFOS-MS-0016,10/13/2012 4:00:11 PM,70.313964,-161.712485,True,3,10.0,-1.50,70.194550,-161.359210,3,School of Fisheries and Ocean Sciences,,,,,,,,,
300234011885330,SFOS-MS-0016,10/13/2012 3:30:07 PM,70.313992,-161.712488,True,3,10.0,-1.50,70.181690,-161.439840,2,School of Fisheries and Ocean Sciences,,,,,,,,,
300234011885330,SFOS-MS-0016,10/13/2012 3:00:07 PM,70.313967,-161.712460,True,3,10.0,-1.50,70.174440,-161.439840,3,School of Fisheries and Ocean Sciences,,,,,,,,,
300234011885330,SFOS-MS-0016,10/13/2012 2:30:07 PM,70.313969,-161.712471,True,3,10.0,-1.55,70.200920,-161.419820,3,School of Fisheries and Ocean Sciences,,,,,,,,,
300234011885330,SFOS-MS-0016,10/13/2012 2:00:38 PM,70.313964,-161.712496,True,3,10.0,-1.50,70.194550,-161.359210,2,School of Fisheries and Ocean Sciences,,,,,,,,,
300234011885330,SFOS-MS-0016,10/13/2012 1:30:08 PM,70.313958,-161.712435,True,3,10.0,-1.50,70.194550,-161.359210,3,School of Fisheries and Ocean Sciences,,,,,,,,,
300234011885330,SFOS-MS-0016,10/13/2012 1:00:07 PM,70.313961,-161.712502,True,3,10.0,-1.50,70.174440,-161.439840,3,School of Fisheries and Ocean Sciences,,,,,,,,,
300234011885330,SFOS-MS-0016,10/13/2012 12:30:08 PM,70.313967,-161.712460,True,3,10.0,-1.45,70.175330,-161.379330,1,School of Fisheries and Ocean Sciences,,,,,,,,,
300234011885330,SFOS-MS-0016,10/13/2012 12:00:07 PM,70.313994,-161.712452,True,3,10.0,-1.45,70.174440,-161.439840,2,School of Fisheries and Ocean Sciences,,,,,,,,,
300234011885330,SFOS-MS-0016,10/13/2012 11:30:35 AM,70.313961,-161.712374,True,3,10.0,-1.35,70.207270,-161.480500,14,School of Fisheries and Ocean Sciences,,,,,,,,,
300234011885330,SFOS-MS-0016,10/13/2012 11:00:09 AM,70.313964,-161.712477,True,3,10.0,-1.35,70.194550,-161.359210,4,School of Fisheries and Ocean Sciences,,,,,,,,,
300234011885330,SFOS-MS-0016,10/13/2012 10:30:08 AM,70.313950,-161.712396,True,3,10.0,-1.35,70.391000,-154.197190,288,School of Fisheries and Ocean Sciences,,,,,,,,,
300234011885330,SFOS-MS-0016,10/13/2012 10:00:08 AM,70.313969,-161.712457,True,3,10.0,-1.30,70.175330,-161.379330,2,School of Fisheries and Ocean Sciences,,,,,,,,,
300234011885330,SFOS-MS-0016,10/13/2012 9:30:08 AM,70.313947,-161.712510,True,3,10.0,-1.25,70.194550,-161.359210,3,School of Fisheries and Ocean Sciences,,,,,,,,,
300234011885330,SFOS-MS-0016,10/13/2012 9:00:08 AM,70.313961,-161.712477,True,3,10.0,-1.25,70.181690,-161.439840,2,School of Fisheries and Ocean Sciences,,,,,,,,,
300234011885330,SFOS-MS-0016,10/13/2012 8:30:07 AM,70.313964,-161.712516,True,3,10.0,-1.25,70.194550,-161.359210,2,School of Fisheries and Ocean Sciences,,,,,,,,,
300234011885330,SFOS-MS-0016,10/13/2012 8:00:38 AM,70.313967,-161.712521,True,3,10.0,-1.25,70.188020,-161.500420,2,School of Fisheries and Ocean Sciences,,,,,,,,,
300234011885330,SFOS-MS-0016,10/13/2012 7:30:11 AM,70.313922,-161.712563,True,3,10.0,-1.25,70.181690,-161.439840,3,School of Fisheries and Ocean Sciences,,,,,,,,,
300234011885330,SFOS-MS-0016,10/13/2012 7:00:09 AM,70.314011,-161.712538,True,3,10.0,-1.25,70.292460,-164.147700,116,School of Fisheries and Ocean Sciences,,,,,,,,,
300234011885330,SFOS-MS-0016,10/13/2012 6:30:09 AM,70.313972,-161.712466,True,3,10.0,-1.25,70.207270,-161.480500,11,School of Fisheries and Ocean Sciences,,,,,,,,,
300234011885330,SFOS-MS-0016,10/13/2012 6:00:08 AM,70.313989,-161.712443,True,3,10.0,-1.25,70.194550,-161.359210,1,School of Fisheries and Ocean Sciences,,,,,,,,,
300234011885330,SFOS-MS-0016,10/13/2012 5:30:08 AM,70.313975,-161.712463,True,3,10.0,-1.25,70.175330,-161.379330,2,School of Fisheries and Ocean Sciences,,,,,,,,,
300234011885330,SFOS-MS-0016,10/13/2012 5:00:08 AM,70.313972,-161.712499,True,3,10.0,-1.30,70.207270,-161.480500,2,School of Fisheries and Ocean Sciences,,,,,,,,,
300234011885330,SFOS-MS-0016,10/13/2012 4:30:08 AM,70.313981,-161.712477,True,3,10.0,-1.30,70.175330,-161.379330,3,School of Fisheries and Ocean Sciences,,,,,,,,,
300234011885330,SFOS-MS-0016,10/13/2012 4:00:37 AM,70.313967,-161.712482,True,3,10.0,-1.30,70.188020,-161.500420,2,School of Fisheries and Ocean Sciences,,,,,,,,,
300234011885330,SFOS-MS-0016,10/13/2012 3:30:14 AM,70.314019,-161.712577,True,3,10.0,-1.30,70.188020,-161.500420,3,School of Fisheries and Ocean Sciences,,,,,,,,,
300234011885330,SFOS-MS-0016,10/13/2012 3:00:09 AM,70.313997,-161.712449,True,3,10.0,-1.30,70.188140,-161.298680,5,School of Fisheries and Ocean Sciences,,,,,,,,,
300234011885330,SFOS-MS-0016,10/13/2012 2:30:08 AM,70.313981,-161.712399,True,3,10.0,-1.35,70.207270,-161.480500,1539,School of Fisheries and Ocean Sciences,,,,,,,,,
300234011885330,SFOS-MS-0016,10/13/2012 2:00:08 AM,70.313983,-161.712429,True,3,10.0,-1.35,70.194550,-161.359210,3,School of Fisheries and Ocean Sciences,,,,,,,,,
300234011885330,SFOS-MS-0016,10/13/2012 1:30:08 AM,70.313975,-161.712449,True,3,10.0,-1.35,70.188020,-161.500420,1,School of Fisheries and Ocean Sciences,,,,,,,,,
300234011885330,SFOS-MS-0016,10/13/2012 1:00:37 AM,70.313967,-161.712527,True,3,10.0,-1.35,70.181690,-161.439840,3,School of Fisheries and Ocean Sciences,,,,,,,,,
300234011885330,SFOS-MS-0016,10/13/2012 12:30:08 AM,70.313994,-161.712482,True,3,10.0,-1.35,70.194550,-161.359210,67,School of Fisheries and Ocean Sciences,,,,,,,,,
300234011885330,SFOS-MS-0016,10/13/2012 12:00:08 AM,70.313983,-161.712454,True,3,10.0,-1.35,70.175330,-161.379330,2,School of Fisheries and Ocean Sciences,,,,,,,,,
300234011885330,SFOS-MS-0016,10/12/2012 11:30:08 PM,70.313989,-161.712421,True,3,10.0,-1.35,70.194550,-161.359210,4,School of Fisheries and Ocean Sciences,,,,,,,,,
300234011885330,SFOS-MS-0016,10/12/2012 11:00:08 PM,70.313978,-161.712477,True,3,10.0,-1.40,70.200920,-161.419820,3,School of Fisheries and Ocean Sciences,,,,,,,,,
300234011885330,SFOS-MS-0016,10/12/2012 10:30:09 PM,70.313981,-161.712477,True,3,10.0,-1.40,70.194550,-161.359210,2,School of Fisheries and Ocean Sciences,,,,,,,,,
300234011885330,SFOS-MS-0016,10/12/2012 10:00:38 PM,70.313975,-161.712510,True,3,10.0,-1.40,70.194550,-161.359210,3,School of Fisheries and Ocean Sciences,,,,,,,,,
300234011885330,SFOS-MS-0016,10/12/2012 9:30:08 PM,70.313972,-161.712507,True,3,10.0,-1.45,70.355440,-157.322640,183,School of Fisheries and Ocean Sciences,,,,,,,,,
300234011885330,SFOS-MS-0016,10/12/2012 9:00:08 PM,70.314003,-161.712502,True,3,10.0,-1.50,70.174440,-161.439840,6,School of Fisheries and Ocean Sciences,,,,,,,,,
300234011885330,SFOS-MS-0016,10/12/2012 8:30:08 PM,70.313978,-161.712493,True,3,10.0,-1.50,70.200920,-161.419820,7,School of Fisheries and Ocean Sciences,,,,,,,,,
300234011885330,SFOS-MS-0016,10/12/2012 8:00:08 PM,70.313978,-161.712504,True,3,10.0,-1.60,70.630200,-167.282710,230,School of Fisheries and Ocean Sciences,,,,,,,,,
300234011885330,SFOS-MS-0016,10/12/2012 7:30:37 PM,70.313975,-161.712491,True,3,10.0,-1.60,70.200920,-161.419820,5,School of Fisheries and Ocean Sciences,,,,,,,,,
300234011885330,SFOS-MS-0016,10/12/2012 7:00:08 PM,70.313983,-161.712454,True,3,10.0,-1.60,70.181690,-161.439840,2,School of Fisheries and Ocean Sciences,,,,,,,,,
300234011885330,SFOS-MS-0016,10/12/2012 6:30:08 PM,70.313997,-161.712413,True,3,10.0,-1.65,70.207270,-161.480500,4,School of Fisheries and Ocean Sciences,,,,,,,,,
300234011885330,SFOS-MS-0016,10/12/2012 6:00:08 PM,70.313981,-161.712393,True,3,10.0,-1.65,70.174440,-161.439840,4,School of Fisheries and Ocean Sciences,,,,,,,,,
300234011885330,SFOS-MS-0016,10/12/2012 5:30:08 PM,70.313978,-161.712468,True,3,10.0,-1.65,70.175330,-161.379330,5,School of Fisheries and Ocean Sciences,,,,,,,,,
300234011885330,SFOS-MS-0016,10/12/2012 5:00:08 PM,70.313967,-161.712468,True,3,10.0,-1.65,70.188020,-161.500420,3,School of Fisheries and Ocean Sciences,,,,,,,,,
300234011885330,SFOS-MS-0016,10/12/2012 4:30:08 PM,70.313961,-161.712479,True,3,10.0,-1.65,70.174440,-161.439840,3,School of Fisheries and Ocean Sciences,,,,,,,,,
300234011885330,SFOS-MS-0016,10/12/2012 4:00:37 PM,70.313964,-161.712507,True,3,10.0,-1.65,70.208400,-170.364060,347,School of Fisheries and Ocean Sciences,,,,,,,,,
300234011885330,SFOS-MS-0016,10/12/2012 3:30:07 PM,70.313972,-161.712407,True,3,10.0,-1.65,70.181690,-161.439840,2,School of Fisheries and Ocean Sciences,,,,,,,,,
300234011885330,SFOS-MS-0016,10/12/2012 3:00:12 PM,70.313994,-161.712352,True,3,10.0,-1.65,70.207270,-161.480500,10,School of Fisheries and Ocean Sciences,,,,,,,,,
300234011885330,SFOS-MS-0016,10/12/2012 2:30:09 PM,70.313931,-161.712746,True,3,10.0,-1.65,70.174440,-161.439840,3,School of Fisheries and Ocean Sciences,,,,,,,,,
300234011885330,SFOS-MS-0016,10/12/2012 2:00:08 PM,70.313936,-161.712493,True,3,10.0,-1.65,70.181690,-161.439840,3,School of Fisheries and Ocean Sciences,,,,,,,,,
300234011885330,SFOS-MS-0016,10/12/2012 1:30:08 PM,70.313969,-161.712474,True,3,10.0,-1.65,70.175330,-161.379330,2,School of Fisheries and Ocean Sciences,,,,,,,,,
300234011885330,SFOS-MS-0016,10/12/2012 1:00:08 PM,70.313964,-161.712485,True,3,10.0,-1.65,70.194550,-161.359210,3,School of Fisheries and Ocean Sciences,,,,,,,,,
300234011885330,SFOS-MS-0016,10/12/2012 12:30:08 PM,70.313958,-161.712457,True,3,10.0,-1.65,70.174440,-161.439840,5,School of Fisheries and Ocean Sciences,,,,,,,,,
300234011885330,SFOS-MS-0016,10/12/2012 12:00:37 PM,70.313992,-161.712457,True,3,10.0,-1.65,70.174440,-161.439840,6,School of Fisheries and Ocean Sciences,,,,,,,,,
300234011885330,SFOS-MS-0016,10/12/2012 11:30:12 AM,70.314061,-161.712791,True,3,10.0,-1.65,70.174440,-161.439840,3,School of Fisheries and Ocean Sciences,,,,,,,,,
300234011885330,SFOS-MS-0016,10/12/2012 11:00:08 AM,70.314019,-161.712613,True,3,10.0,-1.65,70.174440,-161.439840,4,School of Fisheries and Ocean Sciences,,,,,,,,,
300234011885330,SFOS-MS-0016,10/12/2012 10:30:08 AM,70.313947,-161.712407,True,3,10.0,-1.65,70.181690,-161.439840,7,School of Fisheries and Ocean Sciences,,,,,,,,,
300234011885330,SFOS-MS-0016,10/12/2012 10:00:08 AM,70.313939,-161.712479,True,3,10.0,-1.60,70.200920,-161.419820,10,School of Fisheries and Ocean Sciences,,,,,,,,,
300234011885330,SFOS-MS-0016,10/12/2012 9:30:08 AM,70.313947,-161.712493,True,3,10.0,-1.60,70.207270,-161.480500,4,School of Fisheries and Ocean Sciences,,,,,,,,,
300234011885330,SFOS-MS-0016,10/12/2012 9:00:07 AM,70.313972,-161.712479,True,3,10.0,-1.60,70.174440,-161.439840,5,School of Fisheries and Ocean Sciences,,,,,,,,,
300234011885330,SFOS-MS-0016,10/12/2012 8:30:08 AM,70.313975,-161.712435,True,3,10.0,-1.60,70.200920,-161.419820,11,School of Fisheries and Ocean Sciences,,,,,,,,,
300234011885330,SFOS-MS-0016,10/12/2012 8:00:37 AM,70.313958,-161.712474,True,3,10.0,-1.60,70.168070,-161.379330,10,School of Fisheries and Ocean Sciences,,,,,,,,,
300234011885330,SFOS-MS-0016,10/12/2012 7:30:09 AM,70.313892,-161.712604,True,3,10.0,-1.60,71.220200,-171.212740,375,School of Fisheries and Ocean Sciences,,,,,,,,,
300234011885330,SFOS-MS-0016,10/12/2012 7:00:07 AM,70.313997,-161.712507,True,3,10.0,-1.60,70.224140,-162.467770,126,School of Fisheries and Ocean Sciences,,,,,,,,,
300234011885330,SFOS-MS-0016,10/12/2012 6:30:07 AM,70.314039,-161.712435,True,3,10.0,-1.55,70.200920,-161.419820,6,School of Fisheries and Ocean Sciences,,,,,,,,,
300234011885330,SFOS-MS-0016,10/12/2012 6:00:09 AM,70.314019,-161.712368,True,3,10.0,-1.55,70.181690,-161.439840,4,School of Fisheries and Ocean Sciences,,,,,,,,,
300234011885330,SFOS-MS-0016,10/12/2012 5:30:07 AM,70.313986,-161.712471,True,3,10.0,-1.60,70.175330,-161.379330,2,School of Fisheries and Ocean Sciences,,,,,,,,,
300234011885330,SFOS-MS-0016,10/12/2012 5:00:07 AM,70.313969,-161.712516,True,3,10.0,-1.60,70.317730,-164.599610,140,School of Fisheries and Ocean Sciences,,,,,,,,,
300234011885330,SFOS-MS-0016,10/12/2012 4:30:37 AM,70.313972,-161.712518,True,3,10.0,-1.55,70.153560,-158.367320,152,School of Fisheries and Ocean Sciences,,,,,,,,,
300234011885330,SFOS-MS-0016,10/12/2012 4:00:07 AM,70.313956,-161.712466,True,3,10.0,-1.60,70.200920,-161.419820,4,School of Fisheries and Ocean Sciences,,,,,,,,,
300234011885330,SFOS-MS-0016,10/12/2012 3:30:07 AM,70.313983,-161.712432,True,3,10.0,-1.55,70.175330,-161.379330,3,School of Fisheries and Ocean Sciences,,,,,,,,,
300234011885330,SFOS-MS-0016,10/12/2012 3:00:08 AM,70.313994,-161.712443,True,3,10.0,-1.55,70.363540,-165.562540,174,School of Fisheries and Ocean Sciences,,,,,,,,,
300234011885330,SFOS-MS-0016,10/12/2012 2:30:07 AM,70.313975,-161.712454,True,3,10.0,-1.50,70.126100,-159.732000,120,School of Fisheries and Ocean Sciences,,,,,,,,,
300234011885330,SFOS-MS-0016,10/12/2012 2:00:37 AM,70.313978,-161.712468,True,3,10.0,-1.55,70.188020,-161.500420,2,School of Fisheries and Ocean Sciences,,,,,,,,,
300234011885330,SFOS-MS-0016,10/12/2012 1:30:07 AM,70.313958,-161.712529,True,3,10.0,-1.50,70.194550,-161.359210,3,School of Fisheries and Ocean Sciences,,,,,,,,,
300234011885330,SFOS-MS-0016,10/12/2012 1:00:07 AM,70.313972,-161.712507,True,3,10.0,-1.50,70.188020,-161.500420,2,School of Fisheries and Ocean Sciences,,,,,,,,,
300234011885330,SFOS-MS-0016,10/12/2012 12:30:07 AM,70.313994,-161.712457,True,3,10.0,-1.55,70.181690,-161.439840,3,School of Fisheries and Ocean Sciences,,,,,,,,,
300234011885330,SFOS-MS-0016,10/12/2012 12:00:07 AM,70.314008,-161.712446,True,3,10.0,-1.55,70.234200,-152.494360,347,School of Fisheries and Ocean Sciences,,,,,,,,,
300234011885330,SFOS-MS-0016,10/11/2012 11:30:07 PM,70.313986,-161.712454,True,3,10.0,-1.55,70.181690,-161.439840,2,School of Fisheries and Ocean Sciences,,,,,,,,,
300234011885330,SFOS-MS-0016,10/11/2012 11:00:36 PM,70.313978,-161.712474,True,3,10.0,-1.55,70.194550,-161.359210,4,School of Fisheries and Ocean Sciences,,,,,,,,,
300234011885330,SFOS-MS-0016,10/11/2012 10:30:07 PM,70.313967,-161.712474,True,3,10.0,-1.55,70.175330,-161.379330,3,School of Fisheries and Ocean Sciences,,,,,,,,,
300234011885330,SFOS-MS-0016,10/11/2012 10:00:07 PM,70.313964,-161.712535,True,3,10.0,-1.55,70.916600,-164.502460,136,School of Fisheries and Ocean Sciences,,,,,,,,,
300234011885330,SFOS-MS-0016,10/11/2012 9:30:07 PM,70.313967,-161.712471,True,3,10.0,-1.55,70.194550,-161.359210,3,School of Fisheries and Ocean Sciences,,,,,,,,,
300234011885330,SFOS-MS-0016,10/11/2012 9:00:07 PM,70.313989,-161.712516,True,3,10.0,-1.60,70.194550,-161.359210,1,School of Fisheries and Ocean Sciences,,,,,,,,,
300234011885330,SFOS-MS-0016,10/11/2012 8:30:07 PM,70.313992,-161.712488,True,3,10.0,-1.60,70.188020,-161.500420,3,School of Fisheries and Ocean Sciences,,,,,,,,,
300234011885330,SFOS-MS-0016,10/11/2012 8:00:37 PM,70.313981,-161.712529,True,3,10.0,-1.60,70.194550,-161.359210,2,School of Fisheries and Ocean Sciences,,,,,,,,,
300234011885330,SFOS-MS-0016,10/11/2012 7:30:07 PM,70.313975,-161.712488,True,3,10.0,-1.60,70.174440,-161.439840,3,School of Fisheries and Ocean Sciences,,,,,,,,,
300234011885330,SFOS-MS-0016,10/11/2012 7:00:07 PM,70.313972,-161.712463,True,3,10.0,-1.60,70.200920,-161.419820,5,School of Fisheries and Ocean Sciences,,,,,,,,,
300234011885330,SFOS-MS-0016,10/11/2012 6:30:07 PM,70.313986,-161.712485,True,3,10.0,-1.65,70.181690,-161.439840,3,School of Fisheries and Ocean Sciences,,,,,,,,,
300234011885330,SFOS-MS-0016,10/11/2012 6:00:07 PM,70.313953,-161.712457,True,3,10.0,-1.65,69.559420,-162.234340,4,School of Fisheries and Ocean Sciences,,,,,,,,,
300234011885330,SFOS-MS-0016,10/11/2012 5:30:36 PM,70.313944,-161.712418,True,3,10.0,-1.65,70.224400,-160.250760,100,School of Fisheries and Ocean Sciences,,,,,,,,,